Novato, CA

8:53 AM PST on December 11, 2019 (GMT -0800)
Gnoss

Weather History for KDVO - October, 2019

Change the Weather History Date:

Friday, October 18, 2019

  Actual Average (KAPC) Record (KAPC)
Temperature  
Mean Temperature 60 °F -  
Max Temperature 71 °F 78 °F 90 °F (2012)
Min Temperature 48 °F 46 °F 37 °F (1998)
Degree Days  
Heating Degree Days 6    
Growing Degree Days 10 (Base 50)    
Moisture  
Dew Point 46 °F    
Average Humidity 63    
Maximum Humidity 93    
Minimum Humidity 40    
Precipitation  
Precipitation 0.00 in - - ()
Sea Level Pressure  
Sea Level Pressure 30.05 in    
Wind  
Wind Speed 6 mph ()    
Max Wind Speed 17 mph    
Max Gust Speed 28 mph    
Visibility 10.0 miles    
Events      
Averages and records for this station are not official NWS values.
T = Trace of Precipitation, MM = Missing Value Source: Averaged Metar Reports

Daily Weather History Graph

Daily Weather History Graph

Search for Another Location

Airport or City:

Astronomy

Oct. 18, 2019 Rise Set
Actual Time 7:21 AM PDT 6:28 PM PDT
Civil Twilight 6:55 AM PDT 6:55 PM PDT
Nautical Twilight 6:24 AM PDT 7:25 PM PDT
Astronomical Twilight 5:53 AM PDT 7:56 PM PDT
Moon 9:53 PM PDT (10/18) 11:56 AM PDT (10/18)
Length of Visible Light 12h 00m
Length of Day
11h 06m
Waning Gibbous, 78% of the Moon is Illuminated
Oct 18
Waning Gibbous
Oct 21
Last Quarter
Oct 27
New
Nov 4
First Quarter
Nov 12
Full

Hourly Weather History & Observations

Time (PDT) Temp. Dew Point Humidity Pressure Visibility Wind Dir Wind Speed Gust Speed Precip Events Conditions
12:15 AM 59.0 °F 42.8 °F 55% 30.02 in 10.0 mi NW 11.5 mph 17.3 mph N/A   Clear
12:35 AM 59.0 °F 42.8 °F 55% 30.02 in 10.0 mi NW 12.7 mph - N/A   Clear
12:55 AM 59.0 °F 42.8 °F 55% 30.02 in 10.0 mi NW 10.4 mph 20.7 mph N/A   Clear
1:15 AM 59.0 °F 42.8 °F 55% 30.02 in 10.0 mi NNW 12.7 mph 20.7 mph N/A   Clear
1:35 AM 59.0 °F 42.8 °F 55% 30.02 in 10.0 mi NW 15.0 mph - N/A   Clear
1:55 AM 59.0 °F 42.8 °F 55% 30.02 in 10.0 mi NNW 12.7 mph 18.4 mph N/A   Clear
2:15 AM 59.0 °F 42.8 °F 55% 30.03 in 10.0 mi NNW 12.7 mph 20.7 mph N/A   Clear
2:35 AM 57.2 °F 42.8 °F 59% 30.03 in 10.0 mi North 9.2 mph - N/A   Clear
2:55 AM 59.0 °F 42.8 °F 55% 30.03 in 10.0 mi NNW 12.7 mph 21.9 mph N/A   Clear
3:15 AM 55.4 °F 42.8 °F 63% 30.04 in 10.0 mi Calm Calm 11.5 mph N/A   Clear
3:35 AM 53.6 °F 42.8 °F 67% 30.03 in 10.0 mi East 5.8 mph - N/A   Clear
3:55 AM 53.6 °F 42.8 °F 67% 30.03 in 10.0 mi Calm Calm - N/A   Clear
4:15 AM 53.6 °F 42.8 °F 67% 30.03 in 10.0 mi Variable 3.5 mph - N/A   Clear
4:35 AM 50.0 °F 42.8 °F 76% 30.04 in 10.0 mi NNW 4.6 mph - N/A   Clear
4:55 AM 51.8 °F 42.8 °F 71% 30.03 in 10.0 mi Calm Calm - N/A   Clear
5:15 AM 53.6 °F 42.8 °F 67% 30.04 in 10.0 mi Calm Calm - N/A   Clear
5:35 AM 53.6 °F 42.8 °F 67% 30.04 in 10.0 mi Calm Calm - N/A   Clear
5:55 AM 53.6 °F 42.8 °F 67% 30.04 in 10.0 mi Calm Calm - N/A   Clear
6:15 AM 51.8 °F 42.8 °F 71% 30.05 in 10.0 mi Calm Calm - N/A   Clear
6:35 AM 50.0 °F 42.8 °F 76% 30.06 in 10.0 mi Calm Calm - N/A   Clear
6:55 AM 50.0 °F 42.8 °F 76% 30.06 in 10.0 mi Calm Calm - N/A   Clear
7:15 AM 48.2 °F 42.8 °F 82% 30.07 in 10.0 mi Calm Calm - N/A   Clear
7:35 AM 48.2 °F 42.8 °F 82% 30.06 in 10.0 mi Calm Calm - N/A   Clear
7:55 AM 48.2 °F 42.8 °F 82% 30.06 in 10.0 mi Calm Calm - N/A   Clear
8:35 AM 53.6 °F 46.4 °F 77% 30.08 in 10.0 mi Calm Calm - N/A   Mostly Cloudy
8:55 AM 55.4 °F 46.4 °F 72% 30.08 in 10.0 mi Calm Calm - N/A   Mostly Cloudy
9:15 AM 59.0 °F 46.4 °F 63% 30.09 in 10.0 mi Calm Calm - N/A   Partly Cloudy
9:35 AM 60.8 °F 48.2 °F 63% 30.09 in 10.0 mi Calm Calm - N/A   Scattered Clouds
9:55 AM 62.6 °F 50.0 °F 63% 30.09 in 10.0 mi Calm Calm - N/A   Mostly Cloudy
10:15 AM 62.6 °F 50.0 °F 63% 30.09 in 10.0 mi Calm Calm - N/A   Mostly Cloudy
10:35 AM 62.6 °F 51.8 °F 68% 30.09 in 10.0 mi East 3.5 mph - N/A   Mostly Cloudy
10:55 AM 68.0 °F 53.6 °F 60% 30.08 in 10.0 mi Variable 4.6 mph - N/A   Mostly Cloudy
11:15 AM 66.2 °F 53.6 °F 64% 30.07 in 10.0 mi Calm Calm - N/A   Mostly Cloudy
11:35 AM 68.0 °F 51.8 °F 56% 30.08 in 10.0 mi NW 9.2 mph 16.1 mph N/A   Overcast
11:55 AM 69.8 °F 48.2 °F 46% 30.08 in 10.0 mi WNW 8.1 mph 15.0 mph N/A   Mostly Cloudy
12:15 PM 71.6 °F 48.2 °F 43% 30.06 in 10.0 mi Variable 6.9 mph 13.8 mph N/A   Scattered Clouds
12:35 PM 71.6 °F 46.4 °F 41% 30.05 in 10.0 mi WNW 10.4 mph - N/A   Partly Cloudy
12:55 PM 71.6 °F 46.4 °F 41% 30.05 in 10.0 mi WNW 9.2 mph 15.0 mph N/A   Clear
1:15 PM 69.8 °F 46.4 °F 43% 30.05 in 10.0 mi SW 17.3 mph - N/A   Clear
1:35 PM 69.8 °F 44.6 °F 40% 30.05 in 10.0 mi West 12.7 mph 27.6 mph N/A   Clear
1:55 PM 69.8 °F 44.6 °F 40% 30.04 in 10.0 mi WSW 13.8 mph - N/A   Clear
2:15 PM 68.0 °F 42.8 °F 40% 30.04 in 10.0 mi WSW 10.4 mph 20.7 mph N/A   Clear
2:35 PM 69.8 °F 44.6 °F 40% 30.04 in 10.0 mi West 9.2 mph 18.4 mph N/A   Clear
2:55 PM 69.8 °F 46.4 °F 43% 30.05 in 10.0 mi WNW 12.7 mph 20.7 mph N/A   Clear
3:15 PM 68.0 °F 46.4 °F 46% 30.05 in 10.0 mi NW 10.4 mph 21.9 mph N/A   Clear
3:35 PM 68.0 °F 46.4 °F 46% 30.04 in 10.0 mi WNW 8.1 mph 15.0 mph N/A   Clear
3:55 PM 68.0 °F 48.2 °F 49% 30.04 in 10.0 mi WNW 6.9 mph 13.8 mph N/A   Clear
4:15 PM 68.0 °F 48.2 °F 49% 30.04 in 10.0 mi West 10.4 mph - N/A   Clear
4:35 PM 66.2 °F 48.2 °F 52% 30.03 in 10.0 mi West 11.5 mph 17.3 mph N/A   Clear
4:55 PM 66.2 °F 48.2 °F 52% 30.03 in 10.0 mi WSW 8.1 mph - N/A   Clear
5:15 PM 64.4 °F 48.2 °F 56% 30.03 in 10.0 mi Calm Calm 11.5 mph N/A   Clear
5:35 PM 64.4 °F 48.2 °F 56% 30.03 in 10.0 mi Calm Calm - N/A   Clear
5:55 PM 62.6 °F 48.2 °F 59% 30.04 in 10.0 mi Calm Calm - N/A   Clear
6:15 PM 60.8 °F 48.2 °F 63% 30.03 in 10.0 mi South 8.1 mph - N/A   Clear
6:35 PM 60.8 °F 46.4 °F 59% 30.03 in 10.0 mi SSW 9.2 mph - N/A   Clear
6:55 PM 59.0 °F 46.4 °F 63% 30.03 in 10.0 mi South 6.9 mph 13.8 mph N/A   Clear
7:15 PM 59.0 °F 46.4 °F 63% 30.03 in 10.0 mi East 4.6 mph - N/A   Clear
7:35 PM 57.2 °F 46.4 °F 67% 30.03 in 10.0 mi East 5.8 mph - N/A   Clear
7:55 PM 55.4 °F 46.4 °F 72% 30.04 in 10.0 mi East 5.8 mph - N/A   Clear
8:15 PM 57.2 °F 46.4 °F 67% 30.04 in 10.0 mi East 9.2 mph - N/A   Clear
8:35 PM 55.4 °F 46.4 °F 72% 30.04 in 10.0 mi ENE 6.9 mph - N/A   Clear
8:55 PM 55.4 °F 46.4 °F 72% 30.05 in 10.0 mi East 3.5 mph - N/A   Clear
9:15 PM 53.6 °F 46.4 °F 77% 30.05 in 10.0 mi East 4.6 mph - N/A   Clear
9:35 PM 53.6 °F 46.4 °F 77% 30.06 in 10.0 mi Calm Calm - N/A   Partly Cloudy
9:55 PM 53.6 °F 46.4 °F 77% 30.06 in 10.0 mi Calm Calm - N/A   Clear
10:15 PM 51.8 °F 46.4 °F 82% 30.06 in 10.0 mi Calm Calm - N/A   Clear
10:35 PM 50.0 °F 44.6 °F 82% 30.07 in 10.0 mi Calm Calm - N/A   Clear
10:55 PM 51.8 °F 46.4 °F 82% 30.07 in 10.0 mi Calm Calm - N/A   Clear
11:15 PM 51.8 °F 46.4 °F 82% 30.07 in 10.0 mi Calm Calm - N/A   Clear
11:35 PM 50.0 °F 46.4 °F 87% 30.07 in 10.0 mi NNE 3.5 mph - N/A   Clear
11:55 PM 48.2 °F 46.4 °F 93% 30.07 in 10.0 mi North 3.5 mph - N/A   Clear